CW5602 Weather Reports


time (UTC)temp
F
wind
direction
speed
knots
gust
knots
rain 1hr
in
rain 24hr
in
rain mn
in
humidity
%
barometer
mb
20260505153203 62 348 4.3 10.4 0.00 0.00 0.00 59 1013.1
20260505150204 62 0 4.3 11.3 0.00 0.00 0.00 60 1013.4
20260505140203 60 350 2.6 7.8 0.00 0.00 0.00 64 1013.5
20260505130203 56 6 4.3 13.0 0.00 0.00 0.00 69 1013.1
20260505120203 52 57 0.9 4.3 0.00 0.00 0.00 82 1013.2
20260505113203 51 134 0.0 2.6 0.00 0.00 0.00 79 1012.9
20260505110204 51 130 0.0 2.6 0.00 0.00 0.00 79 1012.8
20260505100704 52 190 1.7 2.6 0.00 0.00 0.00 76 1012.8
20260505093703 52 301 0.0 2.6 0.00 0.00 0.00 76 1012.6
20260505083204 53 52 0.9 6.1 0.00 0.00 0.00 73 1012.6
20260505080204 54 107 0.9 4.3 0.00 0.00 0.00 72 1012.4
20260505073704 54 40 0.9 2.6 0.00 0.00 0.00 71 1012.3
20260505073204 54 9 1.7 6.1 0.00 0.00 0.00 71 1012.2
20260505070203 55 149 1.7 7.8 0.00 0.00 0.00 69 1012.3
20260505063704 55 73 1.7 2.6 0.00 0.00 0.00 70 1012.5
20260505060704 55 103 1.7 5.2 0.00 0.00 0.00 70 1012.8
20260505060203 55 61 1.7 5.2 0.00 0.00 0.00 69 1012.8
20260505053703 56 112 0.9 2.6 0.00 0.00 0.00 69 1013.0
20260505053203 56 74 0.0 7.8 0.00 0.00 0.00 69 1013.1
20260505050204 56 238 1.7 7.0 0.00 0.00 0.00 68 1013.1
20260505040704 56 126 2.6 4.3 0.00 0.00 0.00 71 1013.2
20260505040204 56 106 1.7 5.2 0.00 0.00 0.00 70 1013.3
20260505033204 57 67 2.6 7.0 0.00 0.00 0.00 68 1013.5
20260505030203 57 8 3.5 8.7 0.00 0.00 0.00 68 1013.8
20260505023704 57 55 1.7 7.8 0.00 0.00 0.00 67 1013.7
20260505023205 57 104 1.7 2.6 0.00 0.00 0.00 67 1013.7
20260505020204 58 46 0.9 2.6 0.00 0.00 0.00 69 1013.4
20260505013204 59 65 0.9 4.3 0.00 0.00 0.00 71 1013.3
20260505010703 59 20 0.9 2.6 0.00 0.00 0.00 70 1013.1
20260505010204 59 49 1.7 2.6 0.00 0.00 0.00 70 1013.1
20260505003703 61 128 0.9 2.6 0.00 0.00 0.00 69 1012.7
20260504233704 64 175 1.7 5.2 0.00 0.00 0.00 63 1012.4
20260504230704 65 214 0.9 2.6 0.00 0.00 0.00 60 1012.1
20260504223204 66 46 0.9 4.3 0.00 0.00 0.00 53 1012.0
20260504213703 68 0 4.3 10.4 0.00 0.00 0.00 46 1012.1
20260504213204 69 51 0.9 7.0 0.00 0.00 0.00 44 1012.1
20260504210204 70 351 2.6 11.3 0.00 0.00 0.00 43 1012.1
20260504203704 70 347 2.6 7.8 0.00 0.00 0.00 41 1012.4
20260504200704 70 340 4.3 8.7 0.00 0.00 0.00 43 1012.8
20260504193703 69 359 4.3 7.8 0.00 0.00 0.00 45 1013.3
20260504190203 69 343 2.6 7.8 0.00 0.00 0.00 44 1014.0
20260504183704 70 60 0.9 2.6 0.00 0.00 0.00 37 1014.2
20260504180704 69 341 2.6 7.0 0.00 0.00 0.00 44 1014.3
20260504180204 69 45 0.9 6.1 0.00 0.00 0.00 38 1014.3
20260504173204 68 346 0.9 10.4 0.00 0.00 0.00 42 1014.7
20260504170703 66 354 5.2 10.4 0.00 0.00 0.00 52 1014.9
20260504170203 65 352 4.3 10.4 0.00 0.00 0.00 54 1014.9
20260504160204 60 314 0.9 4.3 0.00 0.00 0.00 58 1016.1